Lid_Strength_Index
5 8 11 9 7 7 8 9 10 8 6 8 8 8 7 5 5 5 5 5 4 4 3 2 2 1 2 2 2 2 2 1 1 1 2 2 2 1 1 -0 -0 -0 -1 -1
7 10 7 6 7 8 9 10 10 8 7 7 8 9 7 6 6 5 5 5 4 4 3 2 2 2 2 2 2 2 2 1 1 1 1 1 1 1 0 0 0 -0 -0 -1
9 8 6 7 8 9 9 10 10 10 8 7 8 10 8 6 5 5 4 4 4 4 4 3 3 2 2 3 2 2 2 1 1 1 1 1 1 1 1 1 1 0 -0 -0
8 6 7 8 9 8 11 7 8 10 10 13 9 16 10 8 7 6 5 5 4 4 3 3 3 2 2 3 2 2 2 1 1 1 1 2 2 3 2 1 1 0 -0 -0
9 8 8 9 9 7 10 7 9 10 11 12 12 14 11 8 9 8 6 5 4 4 3 3 3 2 2 3 2 2 2 2 1 1 1 2 2 2 1 1 1 1 1 0
8 5 7 8 7 7 7 8 9 10 12 18 13 13 13 10 9 7 6 5 4 4 3 3 2 2 3 2 2 2 2 2 1 1 1 1 2 2 2 2 2 1 1 1
9 9 6 6 9 8 10 12 19 20 20 19 11 13 12 8 7 6 6 5 4 4 4 3 3 3 3 3 3 2 2 3 2 1 1 1 2 2 2 2 2 2 2 2
14 15 9 7 9 12 13 14 17 22 22 18 11 17 13 7 6 5 5 5 4 4 4 3 3 3 4 3 3 3 3 2 2 1 1 1 1 1 1 1 1 1 2 1
15 14 8 8 7 8 12 16 12 17 15 18 14 11 9 7 7 6 6 5 5 4 4 3 3 3 4 3 3 3 3 2 2 2 1 1 1 1 1 1 1 1 0 0
12 17 10 9 8 7 9 9 17 16 20 20 15 14 12 9 8 8 7 6 5 4 4 3 3 3 3 3 3 2 2 2 2 2 1 1 1 1 1 1 1 1 0 0
10 14 13 10 11 11 12 14 14 13 15 19 19 14 8 9 8 8 7 6 5 4 4 3 3 3 3 3 3 3 3 2 2 2 2 2 1 1 1 1 1 1 0 0
10 13 16 13 8 7 9 12 12 18 16 14 15 17 7 7 6 6 6 5 4 4 4 3 4 4 4 4 3 3 3 3 2 2 2 2 2 2 1 1 1 0 1 1
11 14 17 14 11 10 12 11 12 13 14 17 19 16 7 6 6 6 6 5 5 4 4 4 5 5 5 5 6 3 3 3 2 3 3 2 2 2 1 2 1 1 2 1
9 13 15 18 14 11 14 13 12 12 17 16 15 13 9 8 7 6 5 5 5 4 6 6 5 5 6 4 4 3 3 2 2 3 3 3 3 2 2 2 2 2 2 3
10 15 13 12 12 12 12 12 12 13 14 17 14 12 10 8 8 6 5 5 5 7 6 6 6 5 4 4 3 3 4 3 3 4 3 3 2 2 3 3 3 3 3 3
9 14 12 14 11 12 15 13 12 12 13 13 13 14 9 8 7 7 6 6 6 7 7 6 5 5 6 6 4 3 5 5 4 4 4 3 3 4 4 4 4 4 4 4
12 13 15 17 11 12 17 15 14 14 13 14 16 11 9 9 8 8 6 6 6 7 6 6 6 5 4 4 3 4 5 4 4 4 3 4 4 5 5 4 4 4 4 4
12 12 13 16 14 19 15 13 13 15 13 12 12 12 12 10 7 6 6 6 7 7 6 5 5 4 4 3 4 4 5 5 4 4 4 4 5 5 5 5 5 5 4 4
9 12 15 17 17 14 15 14 15 16 16 13 15 14 10 8 7 8 6 6 6 6 5 5 4 5 5 4 4 5 5 4 5 5 5 5 5 6 5 5 6 4 4 4
8 9 13 15 19 20 17 13 11 12 17 13 14 13 10 9 13 11 7 6 5 5 4 5 5 5 5 4 5 4 5 5 5 6 6 6 6 6 6 6 5 4 4 6
13 12 15 15 16 16 14 13 11 16 17 16 13 12 9 10 9 7 6 6 5 4 5 5 5 5 4 5 4 6 6 6 6 6 5 6 6 6 6 5 3 4 5 6
15 15 15 14 16 18 13 13 18 16 15 12 12 10 8 8 7 7 6 6 5 5 5 5 5 5 5 5 5 6 6 5 5 5 6 6 6 6 5 4 5 5 6 6
14 12 14 15 15 13 12 14 13 14 13 13 11 10 7 7 7 7 7 6 5 5 4 4 5 5 4 5 5 6 5 4 5 5 6 6 6 5 4 5 5 5 5 6
10 10 13 14 14 14 13 12 13 13 12 11 11 11 8 8 7 7 7 7 7 6 6 5 5 5 6 5 5 5 5 4 6 6 5 5 5 6 6 8 9 10 8 6
11 11 13 14 13 14 12 13 14 14 11 12 11 11 11 9 9 8 8 8 8 7 6 6 5 6 5 5 5 4 4 4 5 5 6 7 9 10 12 13 11 12 13 9
11 13 15 16 15 16 16 14 13 12 12 12 12 13 12 9 10 9 9 9 8 7 6 6 5 5 5 5 5 5 5 5 6 7 7 8 9 11 12 13 13 14 13 13